Regional Weather Roundup
Issued by NWS

Home | Current Version | Previous Version | Text Only | Print | Product List | Glossary On
Versions: 1 2 3 4 5 6 7 8 9 10 11 12 13 14 15 16 17 18 19 20 21 22 23 24 25 26 27
000
ASUS46 KSEW 201510
RWRWA

WASHINGTON REGIONAL WEATHER ROUNDUP
NATIONAL WEATHER SERVICE SEATTLE WA
800 AM PDT SUN AUG 20 2017

NOTE:"FAIR" INDICATES FEW OR NO CLOUDS BELOW 12,000 FEET WITH NO
SIGNIFICANT WEATHER AND/OR OBSTRUCTIONS TO VISIBILITY.

WAZ507-509-555>559-201600-
SEATTLE, TACOMA, EVERETT, AND VICINITY

CITY           SKY/WX    TMP DP  RH WIND       PRES   REMARKS
EVERETT        MOSUNNY   56  51  84 NE3       30.18S
BOEING FIELD   PTSUNNY   59  53  80 NE5       30.17R
RENTON         PTSUNNY   59  53  80 N5        30.17R
SEATAC AIRPORT PTSUNNY   59  50  72 NE7       30.17R
JBLM-MCCHORD   PTSUNNY   55  54  99 S3        30.17R
PUYALLUP       FAIR      55  52  88 CALM      30.17S
BREMERTON      PTSUNNY   54  50  86 CALM      30.18S
JBLM-FT LEWIS  PTSUNNY   55  54  99 CALM      30.17R
TACOMA NARROWS PTSUNNY   56  50  80 CALM      30.18R
$$

WAZ001-503-506-510-514-515-201600-
NORTH INTERIOR

CITY           SKY/WX    TMP DP  RH WIND       PRES   REMARKS
BELLINGHAM     PTSUNNY   58  53  84 VRB6      30.15S
FRIDAY HARBOR  PTSUNNY   55  53  93 CALM      30.16R
EASTSOUND      PTSUNNY   57  54  88 S5        30.15R
PORT ANGELES   CLOUDY    56  52  86 W7        30.17R
EDIZ HOOK      FAIR      54  51  89 W10       30.17R
PORT TOWNSEND  FAIR      52  50  93 SE3       30.17R
NAS WHIDBEY    PTSUNNY   57  50  77 SW6       30.19F
ARLINGTON      MOSUNNY   57  51  80 NE7       30.18S
BURLINGTON     CLOUDY    55  54  94 SE3       30.17R
$$

WAZ020-022-039-040-504-511-512-201600-
SOUTHWEST INTERIOR

CITY           SKY/WX    TMP DP  RH WIND       PRES   REMARKS
SHELTON        PTSUNNY   54  51  90 CALM      30.15S
OLYMPIA        PTSUNNY   52  50  93 CALM      30.18R
CHEHALIS       FAIR      52  50  93 CALM      30.18S
KELSO          MOSUNNY   54  50  86 NW6       30.17S
VANCOUVER      MOSUNNY   58  52  80 NW3       30.14R
SCAPPOOSE, OR  MOSUNNY   56  49  77 CALM      30.14R
PORTLAND, OR   PTSUNNY   57  51  80 NW6       30.15R
$$

WAZ021-516-517-201600-
WASHINGTON COAST

CITY           SKY/WX    TMP DP  RH WIND       PRES   REMARKS
FORKS          FOG       53  52  96 E5        30.18S VSB 1
HOQUIAM        PTSUNNY   54  52  93 CALM      30.18S FOG
ASTORIA, OR    MOSUNNY   51  49  92 CALM      30.17S
$$

WAZ019-023-024-040-567>569-201600-
CASCADE MOUNTAINS AND COLUMBIA GORGE

CITY           SKY/WX    TMP DP  RH WIND       PRES   REMARKS
STAMPEDE PASS  PTSUNNY   50  42  74 SW7       30.19R
TROUTDALE, OR  MOSUNNY   59  51  75 CALM      30.14S
HOOD RIVER, OR MOSUNNY   55  46  71 S3        30.10S
THE DALLES, OR SUNNY     64  53  67 VRB3      30.07R
$$

WAZ026-027-041>044-520-521-201600-
EAST SLOPES

CITY           SKY/WX    TMP DP  RH WIND       PRES   REMARKS
OMAK           PTSUNNY   63  38  39 N8        30.07R
WENATCHEE      PTSUNNY   63  42  46 W5        30.06S
ELLENSBURG     PTSUNNY   61  43  51 CALM      30.08S
YAKIMA         PTSUNNY   61  43  51 W8        30.07S
SUNNYSIDE ARPT   N/A     50  46  85 CALM      30.08R
YAKIMA TC      FAIR      64  38  37 E9        30.06R
$$

WAZ028-034-035-201600-
COLUMBIA BASIN

CITY           SKY/WX    TMP DP  RH WIND       PRES   REMARKS
EPHRATA        PTSUNNY   64  40  41 CALM      30.05R
MOSES LAKE     PTSUNNY   59  47  64 CALM      30.06S
PASCO          PTSUNNY   61  49  64 CALM      30.06S
RICHLAND ARPT  PTSUNNY   64  51  63 CALM      30.07R
HERMISTON, OR  PTSUNNY   62  49  62 SE3       30.07R
$$

WAZ036>038-201600-
NORTHEAST WASHINGTON

CITY           SKY/WX    TMP DP  RH WIND       PRES   REMARKS
SPOKANE GEIGER CLOUDY    59  39  47 S8        30.08R
SPOKANE FELTS  PTSUNNY   59  43  55 CALM      30.09R
FAIRCHILD AFB  PTSUNNY   58  40  50 S6        30.08S
COEURDALENE,ID PTSUNNY   61  47  59 S5        30.10R
DEER PARK      PTSUNNY   56  37  49 CALM      30.10R
$$

WAZ029>033-201600-
SOUTHEAST WASHINGTON

CITY           SKY/WX    TMP DP  RH WIND       PRES   REMARKS
PULLMAN        MOSUNNY   60  39  45 E3        30.13R
LEWISTON, ID   MOSUNNY   62  44  51 NE5       30.09R
WALLA WALLA    MOSUNNY   67  44  43 CALM      30.08R
PENDLETON, OR  MOSUNNY   61  42  49 S5        30.09R
$$




USA.gov is the U.S. government's official web portal to all federal, state and local government web resources and services.